Погода в Гомеле

Погода в Гомеле : погода сейчас, прогноз погоды и архив. Всё, что Вы хотите узнать о погоде в Гомеле!

Хотите узнать прогноз погоды в Гомеле? Тогда Вам сюда: Погода в Гомеле

Поиск расширенной информации на нашем сайте:

Другие новости

Новости СМИ2

Главная страница сайта

Новости сайта

03.07.2017

Напоминаем, что на нашем специализированном сайте Метеоцентр.Азия вы можете получить высокодетализированные автоматические прогнозы погоды по пунктам России, СНГ и мира в авиационном формате (включающие направление и скорость ветра, видимость, явления погоды, количество и форму облачности, нижнюю и верхнюю границу облачности).


Погода в Гомеле - сегодня

Время (UTC), дата Ветер
(°,м/с) 
Видим.   Явления Облачность Т
(°С)
Тd
(°С)
f(%) Тe
(°С)
Pmin
(гПа)
dP
(гПа)
Po
(мм)
O2
(г/м3)
Тmin Tmax R s Состояние
почвы
15 20.09.18 220 (ЮЗ) 35000 м    ясно 
+25.8 +14.7 50 +34  1018.9  -0.3  753  274           
18 20.09.18 тихо ()   10 км    ясно 
+18.2 +16.7 91 +30  1019.7  0.3  754  281    +27.3       
21 20.09.18 тихо ()   2700 м  туман поземный  ясно 
+15.2 +14.9 98 +24  1019.9  0.1  754  285           
00 21.09.18 тихо ()   3900 м  туман поземный  ясно 
+13.9 +13.6 98 +20  1020.4  0.4  754  286           
03 21.09.18 тихо ()   4700 м  туман поземный  ясно 
+12.4 +11.9 97 +16  1020.9  0.4  754  288           
06 21.09.18 тихо ()   14000 м    ясно 
+15.7 +13.1 85 +21  1021.3  0.6  755  285  +12.3         
09 21.09.18 210 (ЮЗ) 19000 м    ясно 
+24.3 +13.8 52 +31  1020.7  -0.1  755  276           
12 21.09.18 190 (Ю) 35000 м    3/3 1000 м 
[Cu hum]
+26.5 +11.3 39 +29  1019.7  -0.9  754  275           
15 21.09.18 190 (Ю) 30000 м    3/1 1000 м верхняя 
[Cu hum|Ci fib]
+25.5 +10.9 40 +28  1018.2  -1.5  753  275           
18 21.09.18 120 (ЮВ) 28000 м    3/0 верхняя 
[Ci fib]
+20.1 +12.8 63 +25  1018  -0.5  752  280    +27       
21 21.09.18 120 (ЮВ) 21000 м    1/0 верхняя 
[Ci fib]
+17.4 +12.7 74 +23  1017.5  -0.7  752  282           
00 22.09.18 120 (ЮВ) 20000 м    ясно 
+16.2 +11.6 74 +21  1016.7  -0.8  751  284           
03 22.09.18 120 (ЮВ) 18000 м    ясно 
+14.4 +11.8 84 +20  1015.6  -1.2  750  285           
06 22.09.18 190 (Ю) 27000 м    ясно 
+17.8 +12.1 69 +23  1014.5  -0.9  750  281  +14.1         
09 22.09.18 180 (Ю) 35000 м    3/0 средняя 
[Ac trans]
+24 +10.5 43 +26  1012.6  -1.5  749  275           
12 22.09.18 180 (Ю) 7-13{15}  23000 м    3/0 средняя, верхняя 
[Ac trans|Ci fib]
+26.7 +9.4 34 +27  1011  -1.4  748  273           
15 22.09.18 300 (СЗ) 5-10{13}  16000 м    9/0 средняя, верхняя 
[Ac trans|Ci]
+20.1 +12.6 62 +25  1011.8  0.4  748  278           
18 22.09.18 300 (СЗ) 7-13{16}  4100 м  гроза, ливневой дождь  10/10 800 м кучево-дожд. 
[Cb cap]
+10.9 +9.1 89 +9  1014.7  2.3  750  289    +26.9     
21 22.09.18 300 (СЗ) 3{13}  4500 м  ливневой дождь{гроза}  10/10 420 м кучево-дожд. 
[Cb cap]
+9.2 +8.6 96 +9  1015.8  750  291      12     
00 23.09.18 210 (ЮЗ) 8000 м  в посл. час ливневой дождь{гроза}  10/10 450 м кучево-дожд. 
[Cb cap]
+9 +8.7 98 +9  1016  0.2  750  291         
03 23.09.18 220 (ЮЗ) 8000 м  дымка  10/10 500 м 
[Sc]
+9.4 +9 97 +10  1015.3  -0.7  750  291      16     
06 23.09.18 230 (ЮЗ) 10 км    10/10 570 м 
[Sc]
+9.5 +8.3 92 +10  1015.5  0.2  750  291  +8.8    16     
09 23.09.18 240 (ЮЗ) 18000 м    10/10 500 м 
[Sc]
+10.1 +8.1 87 +10  1015.9  0.4  750  290           
12 23.09.18 260 (З) 35000 м    8/4 1000 м средняя, верхняя 
[Sc|Ac trans|Ci]
+14.6 +6.8 59 +15  1015.4  -0.2  750  286           
15 23.09.18 220 (ЮЗ) 35000 м    4/0 средняя, верхняя 
[Ac trans|Ci fib]
+14.2 +5.9 57 +15  1014.4  -1  749  286           
Время (UTC), дата Ветер
(°,м/с) 
Видим.   Явления Облачность Т
(°С)
Тd
(°С)
f(%) Тe
(°С)
Pmin
(гПа)
dP
(гПа)
Po
(мм)
O2
(г/м3)
Тmin Tmax R s Состояние
почвы

Для получения пояснительной информации подведите курсор к названию столбца.

ПОГОДА в Гомеле - архив

Всё, что Вы хотите узнать о погоде в Гомеле - удобно и подробно!

Выберите нужную дату (начиная с 1 января 2015* года) и нажмите кнопку "Найти".
Будут отображены архивные сводки погоды по пункту Гомель, начиная с указанной даты.


Отображать данные в формате CSV (для использования в таблицах Excel)


Внимание! Наш архив погоды предназначен исключительно для личного некоммерческого использования в познавательных целях. Если Вам необходимы официальные справки о состоянии погоды (для производственных, юридических, коммерческих и т.п. целей), обращайтесь в органы Росгидромета.

*Примечание: данная дата относится к архиву по метеостанциям СССР (Россия, СНГ, Балтия).
Архив по метеостанциям Зарубежной Европы и Азии (кроме Китая) хранится 10 дней, по другим регионам земного шара (Китай, Африка, Америка, Австралия, Океания) - 1 день.

Гомель - район местоположения метеостанции


Название, широта, долгота, высота метеостанции:
Гомель (город) 52.4°ш. 30.9°д. 126 м над ур. моря [Беларусь]

Дополнительная информация

В oтличие oт бoльшинства пoгoдных сайтoв мы публикуем пoдрoбную метеoинфoрмацию в детальнoм прoфессиoнальнoм фoрмате.

Характеристики температуры и влажнoсти вoздуха измеряются на высoте 2 м в тени вдали oт зданий и деревьев.
Скoрoсть ветра измеряется на высoте 10 м (на урoвне рoста челoвека скoрoсть ветра ниже в 1.5-2 раза). Если метеoстанция нахoдится в гoрoде или в лесу, тo скoрoсть ветра занижена на 2-4 м/с пo сравнению с oткрытым местoм. Скoрoсть ветра над акватoриями крупных рек и oзёр, а также на вершинах хoлмoв на 2-5 м/с выше, чем в oбычных услoвиях.
Атмoсфернoе давление в разных тoчках местнoсти мoжет значительнo oтличаться oт давления на метеoстанции, в зависимoсти oт услoвий рельефа (при пoдъёме на 10 м давление пoнижается примернo на 1 мм рт.ст.).